time, Switch, Flow(0), Analog(2)
yyyy/mm/dd HH:MM:SS.fff, True=FILTERED|False=TOTAL, L/min, V
2023/06/26 08:00:01.992, True, 4.641, 0.124590
2023/06/26 08:00:02.495, True, 4.314, 0.124819
2023/06/26 08:00:03.000, True, 4.636, 0.126497
2023/06/26 08:00:03.496, True, 4.380, 0.124971
2023/06/26 08:00:03.999, True, 3.653, 0.125048
2023/06/26 08:00:04.504, True, 2.980, 0.124743
2023/06/26 08:00:05.000, True, 2.022, 0.126268
2023/06/26 08:00:05.503, True, 2.322, 0.126955
2023/06/26 08:00:06.000, True, 1.684, 0.126040
2023/06/26 08:00:06.504, True, 1.990, 0.127718
2023/06/26 08:00:07.008, True, 2.321, 0.123903
2023/06/26 08:00:07.512, True, 1.990, 0.125200
2023/06/26 08:00:08.008, True, 2.022, 0.126802
2023/06/26 08:00:08.512, True, 1.990, 0.128099
2023/06/26 08:00:09.008, True, 1.684, 0.125811
2023/06/26 08:00:09.512, True, 1.990, 0.122988
2023/06/26 08:00:10.016, True, 1.990, 0.124437
2023/06/26 08:00:10.512, True, 2.022, 0.127260
2023/06/26 08:00:11.016, True, 2.321, 0.126497
2023/06/26 08:00:11.520, True, 1.991, 0.126192
2023/06/26 08:00:12.016, True, 2.020, 0.127413
2023/06/26 08:00:12.520, True, 1.993, 0.127108
2023/06/26 08:00:13.024, True, 1.657, 0.125124
2023/06/26 08:00:13.520, True, 2.020, 0.123522
2023/06/26 08:00:14.024, True, 1.990, 0.126268
2023/06/26 08:00:14.528, True, 2.321, 0.125277
2023/06/26 08:00:15.024, True, 2.022, 0.127642
2023/06/26 08:00:15.528, True, 1.990, 0.124971
2023/06/26 08:00:16.031, True, 1.989, 0.126268
2023/06/26 08:00:16.536, True, 1.658, 0.126268
2023/06/26 08:00:17.032, True, 2.024, 0.125277
2023/06/26 08:00:17.536, True, 1.658, 0.126192
2023/06/26 08:00:18.040, True, 1.988, 0.125963
2023/06/26 08:00:18.536, True, 1.685, 0.125734
2023/06/26 08:00:19.040, True, 1.990, 0.126192
2023/06/26 08:00:19.544, True, 1.990, 0.128481
2023/06/26 08:00:20.040, True, 2.022, 0.125582
2023/06/26 08:00:20.544, True, 1.990, 0.125505
2023/06/26 08:00:21.048, True, 1.989, 0.125658
2023/06/26 08:00:21.544, True, 2.021, 0.125658
2023/06/26 08:00:22.048, True, 1.992, 0.128328
2023/06/26 08:00:22.552, True, 1.987, 0.126268
2023/06/26 08:00:23.056, True, 1.990, 0.125658
2023/06/26 08:00:23.552, True, 2.022, 0.125811
2023/06/26 08:00:24.056, True, 1.993, 0.128405
2023/06/26 08:00:24.560, True, 1.655, 0.125505
2023/06/26 08:00:25.056, True, 2.022, 0.126726
2023/06/26 08:00:25.560, True, 1.990, 0.126040
2023/06/26 08:00:26.064, True, 1.993, 0.126192
2023/06/26 08:00:26.568, True, 1.987, 0.123445
2023/06/26 08:00:27.064, True, 2.021, 0.125582
2023/06/26 08:00:27.568, True, 1.990, 0.124743
2023/06/26 08:00:28.072, True, 1.990, 0.125277
2023/06/26 08:00:28.568, True, 1.686, 0.126574
2023/06/26 08:00:29.072, True, 1.988, 0.124743
2023/06/26 08:00:29.576, True, 1.990, 0.125582
2023/06/26 08:00:30.072, True, 1.685, 0.126574
2023/06/26 08:00:30.576, True, 1.990, 0.126192
2023/06/26 08:00:31.080, True, 1.990, 0.124437
2023/06/26 08:00:31.584, True, 1.990, 0.126040
2023/06/26 08:00:32.080, True, 2.022, 0.124819
2023/06/26 08:00:32.584, True, 1.990, 0.126268
2023/06/26 08:00:33.088, True, 1.990, 0.124208
2023/06/26 08:00:33.584, True, 2.022, 0.126421
2023/06/26 08:00:34.088, True, 1.989, 0.125582
2023/06/26 08:00:34.592, True, 1.989, 0.126879
2023/06/26 08:00:35.095, True, 1.992, 0.126345
2023/06/26 08:00:35.592, True, 1.682, 0.127947
2023/06/26 08:00:36.096, True, 1.990, 0.126421
2023/06/26 08:00:36.600, True, 1.990, 0.126497
2023/06/26 08:00:37.096, True, 2.022, 0.128862
2023/06/26 08:00:37.600, True, 1.990, 0.127947
2023/06/26 08:00:38.096, True, 2.022, 0.128176
2023/06/26 08:00:38.600, True, 1.989, 0.129778
2023/06/26 08:00:39.104, True, 1.990, 0.132448
2023/06/26 08:00:39.600, True, 1.685, 0.131914
2023/06/26 08:00:40.104, True, 1.993, 0.131914
2023/06/26 08:00:40.608, True, 1.986, 0.130465
2023/06/26 08:00:41.111, True, 1.990, 0.133440
2023/06/26 08:00:41.607, True, 1.686, 0.131685
2023/06/26 08:00:42.112, True, 1.988, 0.134051
2023/06/26 08:00:42.615, True, 1.990, 0.130694
2023/06/26 08:00:43.112, True, 2.022, 0.133059
2023/06/26 08:00:43.616, True, 1.992, 0.130999
2023/06/26 08:00:44.112, True, 2.019, 0.132448
2023/06/26 08:00:44.616, True, 1.990, 0.132296
2023/06/26 08:00:45.119, True, 1.990, 0.132753
2023/06/26 08:00:45.624, True, 1.990, 0.132601
2023/06/26 08:00:46.120, True, 2.022, 0.134737
2023/06/26 08:00:46.624, True, 1.990, 0.134585
2023/06/26 08:00:47.128, True, 1.990, 0.134279
2023/06/26 08:00:47.624, True, 2.021, 0.135653
2023/06/26 08:00:48.128, True, 1.992, 0.134585
2023/06/26 08:00:48.623, True, 2.019, 0.133364
2023/06/26 08:00:49.127, True, 1.991, 0.134813
2023/06/26 08:00:49.632, True, 1.659, 0.136263
2023/06/26 08:00:50.127, True, 2.019, 0.135348
2023/06/26 08:00:50.631, True, 1.993, 0.136492
2023/06/26 08:00:51.136, True, 1.989, 0.135195
2023/06/26 08:00:51.632, True, 2.021, 0.136416
2023/06/26 08:00:52.136, True, 1.988, 0.135882
2023/06/26 08:00:52.640, True, 1.658, 0.134966
2023/06/26 08:00:53.136, True, 2.025, 0.136034
2023/06/26 08:00:53.640, True, 1.989, 0.136721
2023/06/26 08:00:54.144, True, 1.988, 0.133288
2023/06/26 08:00:54.648, True, 1.990, 0.138094
2023/06/26 08:00:55.144, True, 2.019, 0.135805
2023/06/26 08:00:55.648, True, 1.989, 0.134508
2023/06/26 08:00:56.151, True, 1.992, 0.135882
2023/06/26 08:00:56.647, True, 1.685, 0.136873
2023/06/26 08:00:57.152, True, 1.655, 0.137865
2023/06/26 08:00:57.656, True, 1.990, 0.136339
2023/06/26 08:00:58.152, True, 1.688, 0.136110
2023/06/26 08:00:58.656, True, 1.986, 0.134737
2023/06/26 08:00:59.160, True, 1.660, 0.136873
2023/06/26 08:00:59.664, True, 1.987, 0.135576
2023/06/26 08:01:00.160, True, 1.687, 0.137179
2023/06/26 08:01:00.664, True, 1.987, 0.136721
2023/06/26 08:01:01.168, True, 1.659, 0.136187
2023/06/26 08:01:01.664, True, 2.024, 0.136797
2023/06/26 08:01:02.168, True, 1.986, 0.137026
2023/06/26 08:01:02.672, True, 1.990, 0.136721
2023/06/26 08:01:03.168, True, 1.685, 0.134966
2023/06/26 08:01:03.672, True, 1.990, 0.136416
2023/06/26 08:01:04.176, True, 1.990, 0.137560
2023/06/26 08:01:04.672, True, 2.022, 0.137484
2023/06/26 08:01:05.176, True, 1.989, 0.136950
2023/06/26 08:01:05.680, True, 1.990, 0.137255
2023/06/26 08:01:06.176, True, 1.685, 0.135958
2023/06/26 08:01:06.680, True, 1.989, 0.139467
2023/06/26 08:01:07.184, True, 1.993, 0.135195
2023/06/26 08:01:07.680, True, 2.018, 0.137179
2023/06/26 08:01:08.184, True, 1.990, 0.136492
2023/06/26 08:01:08.688, True, 1.658, 0.137026
2023/06/26 08:01:09.184, True, 2.022, 0.137484
2023/06/26 08:01:09.688, True, 1.989, 0.137026
2023/06/26 08:01:10.192, True, 1.989, 0.135271
2023/06/26 08:01:10.688, True, 2.021, 0.133974
2023/06/26 08:01:11.192, True, 1.990, 0.135348
2023/06/26 08:01:11.688, True, 2.025, 0.136873
2023/06/26 08:01:12.192, True, 1.986, 0.137942
2023/06/26 08:01:12.696, True, 1.990, 0.137560
2023/06/26 08:01:13.192, True, 2.022, 0.135958
2023/06/26 08:01:13.696, True, 1.990, 0.138476
2023/06/26 08:01:14.200, True, 1.990, 0.136110
2023/06/26 08:01:14.696, True, 2.022, 0.135500
2023/06/26 08:01:15.200, True, 1.989, 0.136492
2023/06/26 08:01:15.704, True, 1.990, 0.135882
2023/06/26 08:01:16.200, True, 2.022, 0.137789
2023/06/26 08:01:16.703, True, 1.658, 0.137865
2023/06/26 08:01:17.208, True, 1.990, 0.135424
2023/06/26 08:01:17.704, True, 2.022, 0.139010
2023/06/26 08:01:18.208, True, 1.990, 0.139391
2023/06/26 08:01:18.712, True, 1.989, 0.136645
2023/06/26 08:01:19.208, True, 2.022, 0.134356
2023/06/26 08:01:19.711, True, 1.990, 0.137560
2023/06/26 08:01:20.216, True, 1.990, 0.134890
2023/06/26 08:01:20.712, True, 2.022, 0.135348
2023/06/26 08:01:21.216, True, 1.990, 0.135958
2023/06/26 08:01:21.720, True, 1.990, 0.135882
2023/06/26 08:01:22.216, True, 2.022, 0.133593
2023/06/26 08:01:22.720, True, 1.990, 0.136721
2023/06/26 08:01:23.224, True, 1.990, 0.135653
2023/06/26 08:01:23.720, True, 2.022, 0.135500
2023/06/26 08:01:24.224, True, 1.990, 0.136568
2023/06/26 08:01:24.728, True, 1.658, 0.138170
2023/06/26 08:01:25.224, True, 2.022, 0.136110
2023/06/26 08:01:25.728, True, 1.990, 0.136187
2023/06/26 08:01:26.232, True, 1.990, 0.136339
2023/06/26 08:01:26.728, True, 2.022, 0.134203
2023/06/26 08:01:27.232, True, 1.990, 0.135653
2023/06/26 08:01:27.736, True, 1.989, 0.137636
2023/06/26 08:01:28.232, True, 1.685, 0.135119
2023/06/26 08:01:28.736, True, 1.990, 0.136034
2023/06/26 08:01:29.240, True, 1.989, 0.135958
2023/06/26 08:01:29.736, True, 2.024, 0.136721
2023/06/26 08:01:30.239, True, 1.657, 0.137484
2023/06/26 08:01:30.744, True, 2.321, 0.136187
2023/06/26 08:01:31.240, True, 1.685, 0.135805
2023/06/26 08:01:31.744, True, 2.321, 0.136187
2023/06/26 08:01:32.248, True, 1.990, 0.134432
2023/06/26 08:01:32.744, True, 2.022, 0.134890
2023/06/26 08:01:33.248, True, 1.989, 0.136797
2023/06/26 08:01:33.752, True, 1.990, 0.135348
2023/06/26 08:01:34.248, True, 2.022, 0.135042
2023/06/26 08:01:34.752, True, 1.659, 0.135729
2023/06/26 08:01:35.256, True, 1.988, 0.135119
2023/06/26 08:01:35.752, True, 2.022, 0.137560
2023/06/26 08:01:36.255, True, 1.657, 0.136568
2023/06/26 08:01:36.760, True, 1.990, 0.135500
2023/06/26 08:01:37.263, True, 1.992, 0.135424
2023/06/26 08:01:37.759, True, 2.020, 0.136645
2023/06/26 08:01:38.264, True, 1.990, 0.135882
2023/06/26 08:01:38.760, True, 1.686, 0.134966
2023/06/26 08:01:39.263, True, 1.986, 0.133288
2023/06/26 08:01:39.768, True, 1.990, 0.133440
2023/06/26 08:01:40.263, True, 2.025, 0.135500
2023/06/26 08:01:40.768, True, 1.988, 0.135195
2023/06/26 08:01:41.272, True, 1.657, 0.135119
2023/06/26 08:01:41.775, True, 1.990, 0.133822
2023/06/26 08:01:42.271, True, 2.022, 0.135348
2023/06/26 08:01:42.776, True, 1.992, 0.136721
2023/06/26 08:01:43.280, True, 1.989, 0.135653
2023/06/26 08:01:43.775, True, 1.683, 0.136187
2023/06/26 08:01:44.279, True, 1.989, 0.136034
2023/06/26 08:01:44.783, True, 1.989, 0.132219
2023/06/26 08:01:45.279, True, 2.022, 0.136873
2023/06/26 08:01:45.784, True, 1.990, 0.134661
2023/06/26 08:01:46.287, True, 1.989, 0.135271
2023/06/26 08:01:46.784, True, 2.022, 0.135576
2023/06/26 08:01:47.288, True, 1.989, 0.134279
2023/06/26 08:01:47.792, True, 1.993, 0.135958
2023/06/26 08:01:48.288, True, 1.681, 0.131838
2023/06/26 08:01:48.792, True, 1.990, 0.135195
2023/06/26 08:01:49.296, True, 1.658, 0.134890
2023/06/26 08:01:49.792, True, 2.022, 0.132677
2023/06/26 08:01:50.296, True, 1.658, 0.134051
2023/06/26 08:01:50.799, True, 1.990, 0.132677
2023/06/26 08:01:51.296, True, 2.022, 0.135348
2023/06/26 08:01:51.800, True, 1.658, 0.135042
2023/06/26 08:01:52.303, True, 1.994, 0.135348
2023/06/26 08:01:52.800, True, 1.681, 0.133822
2023/06/26 08:01:53.304, True, 1.990, 0.132296
2023/06/26 08:01:53.808, True, 1.658, 0.133898
2023/06/26 08:01:54.303, True, 2.022, 0.134356
2023/06/26 08:01:54.808, True, 1.990, 0.135500
2023/06/26 08:01:55.312, True, 1.990, 0.135042
2023/06/26 08:01:55.808, True, 1.685, 0.133059
2023/06/26 08:01:56.312, True, 1.990, 0.134203
2023/06/26 08:01:56.815, True, 1.990, 0.132677
2023/06/26 08:01:57.312, True, 2.022, 0.133593
2023/06/26 08:01:57.815, True, 1.993, 0.133593
2023/06/26 08:01:58.320, True, 1.655, 0.133364
2023/06/26 08:01:58.816, True, 2.022, 0.134508
2023/06/26 08:01:59.320, True, 1.990, 0.132906
2023/06/26 08:01:59.824, True, 1.658, 0.134203
2023/06/26 08:02:00.320, True, 2.022, 0.135424
2023/06/26 08:02:00.824, True, 1.992, 0.132982
2023/06/26 08:02:01.327, True, 1.987, 0.134279
2023/06/26 08:02:01.824, True, 1.685, 0.133669
2023/06/26 08:02:02.327, True, 1.990, 0.132448
2023/06/26 08:02:02.832, True, 1.990, 0.135042
2023/06/26 08:02:03.327, True, 2.359, 0.132982
2023/06/26 08:02:03.832, True, 1.990, 0.131075
2023/06/26 08:02:04.328, True, 2.022, 0.134279
2023/06/26 08:02:04.831, True, 1.991, 0.134127
2023/06/26 08:02:05.336, True, 1.988, 0.133822
2023/06/26 08:02:05.839, True, 1.990, 0.134966
2023/06/26 08:02:06.336, True, 1.685, 0.133288
2023/06/26 08:02:06.839, True, 1.990, 0.134737
2023/06/26 08:02:07.344, True, 1.658, 0.135576
2023/06/26 08:02:07.840, True, 2.022, 0.132830
2023/06/26 08:02:08.344, True, 1.990, 0.134127
2023/06/26 08:02:08.847, True, 1.990, 0.133135
2023/06/26 08:02:09.352, True, 1.990, 0.132906
2023/06/26 08:02:09.848, True, 2.021, 0.132982
2023/06/26 08:02:10.351, True, 1.990, 0.132982
2023/06/26 08:02:10.856, True, 1.990, 0.134051
2023/06/26 08:02:11.351, True, 1.685, 0.133364
2023/06/26 08:02:11.855, True, 1.990, 0.132067
2023/06/26 08:02:12.360, True, 1.990, 0.133135
2023/06/26 08:02:12.855, True, 2.022, 0.136797
2023/06/26 08:02:13.359, True, 1.990, 0.131075
2023/06/26 08:02:13.863, True, 1.990, 0.134508
2023/06/26 08:02:14.359, True, 2.022, 0.131380
2023/06/26 08:02:14.863, True, 1.990, 0.132906
2023/06/26 08:02:15.367, True, 1.658, 0.132830
2023/06/26 08:02:15.863, True, 2.021, 0.132296
2023/06/26 08:02:16.368, True, 1.990, 0.131914
2023/06/26 08:02:16.864, True, 2.022, 0.132753
2023/06/26 08:02:17.367, True, 1.990, 0.134203
2023/06/26 08:02:17.871, True, 1.990, 0.132219
2023/06/26 08:02:18.375, True, 1.993, 0.133135
2023/06/26 08:02:18.871, True, 1.685, 0.134585
2023/06/26 08:02:19.375, True, 1.986, 0.133516
2023/06/26 08:02:19.879, True, 1.990, 0.133516
2023/06/26 08:02:20.376, True, 1.686, 0.133898
2023/06/26 08:02:20.880, True, 1.987, 0.132296
2023/06/26 08:02:21.383, True, 1.661, 0.131685
2023/06/26 08:02:21.879, True, 2.021, 0.131762
2023/06/26 08:02:22.383, True, 1.658, 0.133593
2023/06/26 08:02:22.887, True, 1.987, 0.131609
2023/06/26 08:02:23.383, True, 2.026, 0.132982
2023/06/26 08:02:23.887, True, 1.658, 0.132601
2023/06/26 08:02:24.391, True, 1.986, 0.132448
2023/06/26 08:02:24.887, True, 2.022, 0.133516
2023/06/26 08:02:25.391, True, 1.658, 0.137331
2023/06/26 08:02:25.895, True, 1.660, 0.133288
2023/06/26 08:02:26.399, True, 1.986, 0.134203
2023/06/26 08:02:26.895, True, 2.022, 0.134508
2023/06/26 08:02:27.399, True, 1.659, 0.133745
2023/06/26 08:02:27.903, True, 1.990, 0.132830
2023/06/26 08:02:28.399, True, 1.684, 0.135882
2023/06/26 08:02:28.903, True, 1.989, 0.132982
2023/06/26 08:02:29.407, True, 1.658, 0.133211
2023/06/26 08:02:29.903, True, 2.023, 0.132372
2023/06/26 08:02:30.407, True, 1.657, 0.132906
2023/06/26 08:02:30.911, True, 1.990, 0.134203
2023/06/26 08:02:31.407, True, 2.022, 0.131838
2023/06/26 08:02:31.911, True, 1.990, 0.132296
2023/06/26 08:02:32.415, True, 1.657, 0.132525
2023/06/26 08:02:32.911, True, 2.022, 0.131838
2023/06/26 08:02:33.415, True, 1.989, 0.132601
2023/06/26 08:02:33.919, True, 1.658, 0.132525
2023/06/26 08:02:34.415, True, 2.022, 0.131838
2023/06/26 08:02:34.919, True, 1.990, 0.133364
2023/06/26 08:02:35.423, True, 1.989, 0.132677
2023/06/26 08:02:35.919, True, 2.024, 0.131838
2023/06/26 08:02:36.423, True, 1.987, 0.132677
2023/06/26 08:02:36.927, True, 1.990, 0.129778
2023/06/26 08:02:37.423, True, 2.023, 0.131914
2023/06/26 08:02:37.927, True, 1.659, 0.132143
2023/06/26 08:02:38.431, True, 1.987, 0.131304
2023/06/26 08:02:38.927, True, 2.022, 0.132753
2023/06/26 08:02:39.431, True, 1.990, 0.131075
2023/06/26 08:02:39.927, True, 1.685, 0.132143
2023/06/26 08:02:40.431, True, 1.990, 0.131991
2023/06/26 08:02:40.935, True, 1.989, 0.132372
2023/06/26 08:02:41.439, True, 1.659, 0.132525
2023/06/26 08:02:41.935, True, 2.021, 0.132219
2023/06/26 08:02:42.439, True, 1.990, 0.131838
2023/06/26 08:02:42.943, True, 1.658, 0.131685
2023/06/26 08:02:43.439, True, 2.022, 0.130770
2023/06/26 08:02:43.943, True, 1.990, 0.131914
2023/06/26 08:02:44.447, True, 1.990, 0.131151
2023/06/26 08:02:44.943, True, 1.685, 0.134051
2023/06/26 08:02:45.447, True, 1.990, 0.132067
2023/06/26 08:02:45.943, True, 2.022, 0.130846
2023/06/26 08:02:46.447, True, 1.989, 0.130999
2023/06/26 08:02:46.951, True, 1.989, 0.131762
2023/06/26 08:02:47.447, True, 2.022, 0.132143
2023/06/26 08:02:47.951, True, 1.990, 0.132677
2023/06/26 08:02:48.455, True, 1.658, 0.132219
2023/06/26 08:02:48.951, True, 2.025, 0.131380
2023/06/26 08:02:49.455, True, 1.986, 0.132067
2023/06/26 08:02:49.959, True, 1.990, 0.131762
2023/06/26 08:02:50.463, True, 1.658, 0.132067
2023/06/26 08:02:50.959, True, 2.022, 0.132143
2023/06/26 08:02:51.463, True, 1.994, 0.130694
2023/06/26 08:02:51.967, True, 1.986, 0.132219
2023/06/26 08:02:52.463, True, 2.022, 0.131762
2023/06/26 08:02:52.967, True, 1.990, 0.133898
2023/06/26 08:02:53.463, True, 2.022, 0.133288
2023/06/26 08:02:53.967, True, 1.658, 0.132372
2023/06/26 08:02:54.471, True, 1.989, 0.131228
2023/06/26 08:02:54.975, True, 1.990, 0.132677
2023/06/26 08:02:55.471, True, 2.022, 0.129931
2023/06/26 08:02:55.975, True, 1.658, 0.132372
2023/06/26 08:02:56.471, True, 2.022, 0.131685
2023/06/26 08:02:56.975, True, 1.990, 0.132219
2023/06/26 08:02:57.479, True, 1.990, 0.131609
2023/06/26 08:02:57.975, True, 2.022, 0.130236
2023/06/26 08:02:58.479, True, 1.990, 0.132067
2023/06/26 08:02:58.983, True, 1.990, 0.133059
2023/06/26 08:02:59.479, True, 2.022, 0.128939
2023/06/26 08:02:59.983, True, 1.990, 0.132830
2023/06/26 08:03:00.487, True, 1.989, 0.130846
2023/06/26 08:03:00.983, True, 2.022, 0.131380
2023/06/26 08:03:01.487, True, 1.990, 0.132143
2023/06/26 08:03:01.983, True, 1.685, 0.131762
2023/06/26 08:03:02.487, True, 1.990, 0.130694
2023/06/26 08:03:02.991, True, 1.990, 0.132296
2023/06/26 08:03:03.487, True, 2.022, 0.130617
2023/06/26 08:03:03.991, True, 1.990, 0.129778
2023/06/26 08:03:04.495, True, 1.990, 0.130922
2023/06/26 08:03:04.999, True, 1.994, 0.131762
2023/06/26 08:03:05.495, True, 1.681, 0.130159
2023/06/26 08:03:05.999, True, 1.658, 0.131838
2023/06/26 08:03:06.503, True, 1.989, 0.131533
2023/06/26 08:03:06.999, True, 1.685, 0.130922
2023/06/26 08:03:07.503, True, 1.990, 0.133135
2023/06/26 08:03:08.007, True, 1.990, 0.130541
2023/06/26 08:03:08.503, True, 2.022, 0.133288
2023/06/26 08:03:09.007, True, 1.990, 0.131075
2023/06/26 08:03:09.503, True, 2.022, 0.131609
2023/06/26 08:03:10.007, True, 1.658, 0.132296
2023/06/26 08:03:10.511, True, 1.990, 0.131380
2023/06/26 08:03:11.007, True, 2.022, 0.128939
2023/06/26 08:03:11.511, True, 1.990, 0.130922
2023/06/26 08:03:12.015, True, 1.990, 0.130999
2023/06/26 08:03:12.511, True, 2.022, 0.131456
2023/06/26 08:03:13.015, True, 1.990, 0.129320
2023/06/26 08:03:13.519, True, 1.658, 0.131838
2023/06/26 08:03:14.023, True, 1.990, 0.130770
2023/06/26 08:03:14.519, True, 2.022, 0.131380
2023/06/26 08:03:15.023, True, 1.990, 0.128481
2023/06/26 08:03:15.527, True, 1.990, 0.130922
2023/06/26 08:03:16.023, True, 1.685, 0.131609
2023/06/26 08:03:16.527, True, 1.990, 0.130312
2023/06/26 08:03:17.031, True, 2.321, 0.130236
2023/06/26 08:03:17.527, True, 1.685, 0.129549
2023/06/26 08:03:18.031, True, 1.990, 0.130999
2023/06/26 08:03:18.535, True, 1.658, 0.128405
2023/06/26 08:03:19.031, True, 2.024, 0.130922
2023/06/26 08:03:19.535, True, 1.656, 0.130999
2023/06/26 08:03:20.039, True, 1.993, 0.130388
2023/06/26 08:03:20.535, True, 1.682, 0.128405
2023/06/26 08:03:21.039, True, 1.990, 0.130236
2023/06/26 08:03:21.543, True, 1.658, 0.130083
2023/06/26 08:03:22.047, True, 1.990, 0.131838
2023/06/26 08:03:22.543, True, 1.685, 0.131991
2023/06/26 08:03:23.047, True, 1.990, 0.128786
2023/06/26 08:03:23.551, True, 1.990, 0.131380
2023/06/26 08:03:24.047, True, 1.685, 0.128786
2023/06/26 08:03:24.551, True, 1.990, 0.130159
2023/06/26 08:03:25.055, True, 1.990, 0.130083
2023/06/26 08:03:25.551, True, 2.022, 0.129625
2023/06/26 08:03:26.055, True, 1.991, 0.130617
2023/06/26 08:03:26.559, True, 1.988, 0.131075
2023/06/26 08:03:27.055, True, 1.686, 0.129854
2023/06/26 08:03:27.559, True, 1.988, 0.129854
2023/06/26 08:03:28.063, True, 1.990, 0.130541
2023/06/26 08:03:28.559, True, 2.022, 0.131609
2023/06/26 08:03:29.062, True, 1.658, 0.131609
2023/06/26 08:03:29.567, True, 1.989, 0.130083
2023/06/26 08:03:30.063, True, 2.022, 0.129015
2023/06/26 08:03:30.567, True, 1.658, 0.131380
2023/06/26 08:03:31.071, True, 1.990, 0.130694
2023/06/26 08:03:31.567, True, 1.686, 0.131151
2023/06/26 08:03:32.071, True, 1.988, 0.130083
2023/06/26 08:03:32.575, True, 1.990, 0.130465
2023/06/26 08:03:33.071, True, 1.685, 0.130617
2023/06/26 08:03:33.575, True, 1.990, 0.130159
2023/06/26 08:03:34.079, True, 1.990, 0.127718
2023/06/26 08:03:34.575, True, 1.685, 0.130770
2023/06/26 08:03:35.078, True, 1.990, 0.129473
2023/06/26 08:03:35.583, True, 1.658, 0.127871
2023/06/26 08:03:36.079, True, 2.023, 0.131533
2023/06/26 08:03:36.583, True, 1.657, 0.130159
2023/06/26 08:03:37.087, True, 1.990, 0.132296
2023/06/26 08:03:37.583, True, 2.022, 0.128252
2023/06/26 08:03:38.087, True, 1.658, 0.130083
2023/06/26 08:03:38.583, True, 2.022, 0.131685
2023/06/26 08:03:39.087, True, 1.658, 0.131914
2023/06/26 08:03:39.591, True, 1.990, 0.131914
2023/06/26 08:03:40.087, True, 2.022, 0.128634
2023/06/26 08:03:40.591, True, 1.660, 0.131304
2023/06/26 08:03:41.095, True, 1.990, 0.130312
2023/06/26 08:03:41.591, True, 2.019, 0.129244
2023/06/26 08:03:42.095, True, 1.990, 0.128557
2023/06/26 08:03:42.599, True, 1.989, 0.130541
2023/06/26 08:03:43.095, True, 2.022, 0.128099
2023/06/26 08:03:43.599, True, 1.989, 0.132067
2023/06/26 08:03:44.103, True, 1.990, 0.130236
2023/06/26 08:03:44.599, True, 1.684, 0.128099
2023/06/26 08:03:45.103, True, 1.991, 0.130846
2023/06/26 08:03:45.607, True, 1.991, 0.128328
2023/06/26 08:03:46.103, True, 2.019, 0.129549
2023/06/26 08:03:46.607, True, 1.990, 0.127184
2023/06/26 08:03:47.111, True, 1.990, 0.128557
2023/06/26 08:03:47.607, True, 2.024, 0.129397
2023/06/26 08:03:48.111, True, 1.989, 0.129473
2023/06/26 08:03:48.607, True, 2.021, 0.127337
2023/06/26 08:03:49.111, True, 1.989, 0.130617
2023/06/26 08:03:49.615, True, 1.990, 0.128710
2023/06/26 08:03:50.111, True, 2.022, 0.129015
2023/06/26 08:03:50.614, True, 1.989, 0.131533
2023/06/26 08:03:51.119, True, 1.991, 0.129397
2023/06/26 08:03:51.615, True, 2.022, 0.130007
2023/06/26 08:03:52.119, True, 1.989, 0.128710
2023/06/26 08:03:52.623, True, 1.659, 0.130236
2023/06/26 08:03:53.119, True, 2.022, 0.129168
2023/06/26 08:03:53.623, True, 1.990, 0.131228
2023/06/26 08:03:54.127, True, 1.989, 0.130007
2023/06/26 08:03:54.631, True, 1.992, 0.130465
2023/06/26 08:03:55.127, True, 2.020, 0.128176
2023/06/26 08:03:55.630, True, 1.990, 0.129931
2023/06/26 08:03:56.134, True, 1.990, 0.128023
2023/06/26 08:03:56.631, True, 1.684, 0.129625
2023/06/26 08:03:57.135, True, 1.990, 0.129549
2023/06/26 08:03:57.639, True, 1.657, 0.129549
2023/06/26 08:03:58.135, True, 2.025, 0.127565
2023/06/26 08:03:58.639, True, 1.988, 0.129473
2023/06/26 08:03:59.143, True, 1.657, 0.129778
2023/06/26 08:03:59.647, True, 1.988, 0.132067
2023/06/26 08:04:00.143, True, 2.025, 0.129473
2023/06/26 08:04:00.646, True, 1.987, 0.127489
2023/06/26 08:04:01.151, True, 1.990, 0.129778
2023/06/26 08:04:01.647, True, 2.025, 0.129702
2023/06/26 08:04:02.151, True, 1.987, 0.127489
2023/06/26 08:04:02.655, True, 1.658, 0.130694
2023/06/26 08:04:03.159, True, 1.990, 0.129091
2023/06/26 08:04:03.655, True, 2.022, 0.131533
2023/06/26 08:04:04.159, True, 1.990, 0.130312
2023/06/26 08:04:04.655, True, 2.022, 0.129778
2023/06/26 08:04:05.159, True, 1.990, 0.128557
2023/06/26 08:04:05.663, True, 1.658, 0.129854
2023/06/26 08:04:06.159, True, 2.022, 0.128176
2023/06/26 08:04:06.663, True, 1.658, 0.129015
2023/06/26 08:04:07.167, True, 1.989, 0.130465
2023/06/26 08:04:07.663, True, 2.022, 0.130007
2023/06/26 08:04:08.167, True, 1.989, 0.129625
2023/06/26 08:04:08.671, True, 1.990, 0.129549
2023/06/26 08:04:09.167, True, 2.022, 0.129702
2023/06/26 08:04:09.671, True, 1.990, 0.128786
2023/06/26 08:04:10.175, True, 1.658, 0.127260
2023/06/26 08:04:10.671, True, 2.024, 0.131304
2023/06/26 08:04:11.175, True, 1.987, 0.128710